Météo par heure à Al Khubar

Ce jour, 13 Mai, Jeudi

Heure Température Précipitation Vent Pression Humidité
00:00 +31°C° 0 mm 1 m/s 751 mmHg 31%
01:00 +31°C° 0 mm 1 m/s 751 mmHg 30%
02:00 +31°C° 0 mm 1 m/s 751 mmHg 29%
03:00 +30°C° 0 mm 2 m/s 751 mmHg 29%
04:00 +31°C° 0 mm 2 m/s 751 mmHg 26%
05:00 +32°C° 0 mm 2 m/s 751 mmHg 24%
06:00 +33°C° 0 mm 3 m/s 752 mmHg 22%
07:00 +36°C° 0 mm 3 m/s 752 mmHg 20%
08:00 +38°C° 0 mm 3 m/s 752 mmHg 17%
09:00 +40°C° 0 mm 3 m/s 753 mmHg 14%
10:00 +42°C° 0 mm 3 m/s 752 mmHg 13%
11:00 +43°C° 0 mm 4 m/s 752 mmHg 13%
12:00 +45°C° 0 mm 4 m/s 752 mmHg 12%
13:00 +45°C° 0 mm 5 m/s 751 mmHg 12%
14:00 +45°C° 0 mm 5 m/s 751 mmHg 13%
15:00 +45°C° 0 mm 6 m/s 750 mmHg 13%
16:00 +42°C° 0 mm 5 m/s 750 mmHg 16%
17:00 +40°C° 0 mm 5 m/s 750 mmHg 20%
18:00 +37°C° 0 mm 5 m/s 750 mmHg 23%
19:00 +36°C° 0 mm 4 m/s 750 mmHg 26%
20:00 +36°C° 0 mm 3 m/s 751 mmHg 29%
21:00 +35°C° 0 mm 3 m/s 751 mmHg 32%
22:00 +35°C° 0 mm 2 m/s 750 mmHg 30%
23:00 +35°C° 0 mm 2 m/s 750 mmHg 28%

Demain, 14 Mai, Vendredi

Heure Température Précipitation Vent Pression Humidité
00:00 +35°C° 0 mm 2 m/s 750 mmHg 27%
01:00 +34°C° 0 mm 2 m/s 750 mmHg 25%
02:00 +34°C° 0 mm 2 m/s 750 mmHg 23%
03:00 +34°C° 0 mm 2 m/s 749 mmHg 22%
04:00 +34°C° 0 mm 2 m/s 750 mmHg 20%
05:00 +35°C° 0 mm 2 m/s 750 mmHg 19%
06:00 +35°C° 0 mm 3 m/s 751 mmHg 18%
07:00 +37°C° 0 mm 3 m/s 751 mmHg 16%
08:00 +39°C° 0 mm 3 m/s 751 mmHg 14%
09:00 +42°C° 0 mm 3 m/s 751 mmHg 12%
10:00 +43°C° 0 mm 3 m/s 751 mmHg 12%
11:00 +44°C° 0 mm 4 m/s 751 mmHg 12%
12:00 +45°C° 0 mm 4 m/s 751 mmHg 12%
13:00 +46°C° 0 mm 5 m/s 750 mmHg 12%
14:00 +45°C° 0 mm 5 m/s 750 mmHg 12%
15:00 +45°C° 0 mm 5 m/s 750 mmHg 13%
16:00 +42°C° 0 mm 5 m/s 749 mmHg 17%
17:00 +40°C° 0 mm 5 m/s 749 mmHg 22%
18:00 +37°C° 0 mm 4 m/s 749 mmHg 26%
19:00 +36°C° 0 mm 3 m/s 749 mmHg 27%
20:00 +35°C° 0 mm 2 m/s 749 mmHg 28%
21:00 +33°C° 0 mm 1 m/s 749 mmHg 29%
22:00 +34°C° 0 mm 2 m/s 749 mmHg 28%
23:00 +34°C° 0 mm 2 m/s 749 mmHg 26%

Après-demain, 15 Mai, Samedi

Heure Température Précipitation Vent Pression Humidité
00:00 +34°C° 0 mm 3 m/s 749 mmHg 25%
01:00 +34°C° 0 mm 3 m/s 749 mmHg 23%
02:00 +35°C° 0 mm 3 m/s 748 mmHg 21%
03:00 +35°C° 0 mm 3 m/s 748 mmHg 19%
04:00 +35°C° 0 mm 3 m/s 749 mmHg 19%
05:00 +35°C° 0 mm 3 m/s 749 mmHg 19%
06:00 +35°C° 0 mm 3 m/s 749 mmHg 19%
07:00 +38°C° 0 mm 3 m/s 750 mmHg 16%
08:00 +40°C° 0 mm 3 m/s 750 mmHg 13%
09:00 +43°C° 0 mm 2 m/s 750 mmHg 11%
10:00 +45°C° 0 mm 3 m/s 750 mmHg 10%
11:00 +46°C° 0 mm 3 m/s 749 mmHg 10%
12:00 +48°C° 0 mm 4 m/s 749 mmHg 10%
13:00 +46°C° 0 mm 5 m/s 749 mmHg 12%
14:00 +45°C° 0 mm 5 m/s 748 mmHg 14%
15:00 +43°C° 0 mm 5 m/s 748 mmHg 16%
16:00 +41°C° 0 mm 4 m/s 748 mmHg 18%
17:00 +40°C° 0 mm 4 m/s 748 mmHg 21%
18:00 +37°C° 0 mm 3 m/s 748 mmHg 23%
19:00 +36°C° 0 mm 2 m/s 749 mmHg 23%
20:00 +35°C° 0 mm 2 m/s 749 mmHg 23%
21:00 +33°C° 0 mm 1 m/s 749 mmHg 24%
22:00 +33°C° 0 mm 1 m/s 749 mmHg 22%
23:00 +33°C° 0 mm 1 m/s 749 mmHg 21%

16 Mai, Dimanche

Heure Température Précipitation Vent Pression Humidité
00:00 +34°C° 0 mm 2 m/s 749 mmHg 20%
01:00 +33°C° 0 mm 1 m/s 749 mmHg 21%
02:00 +32°C° 0 mm 1 m/s 749 mmHg 22%
03:00 +31°C° 0 mm 1 m/s 749 mmHg 23%
04:00 +32°C° 0 mm 1 m/s 750 mmHg 22%
05:00 +32°C° 0 mm 2 m/s 750 mmHg 20%
06:00 +34°C° 0 mm 2 m/s 751 mmHg 19%
07:00 +36°C° 0 mm 2 m/s 751 mmHg 17%
08:00 +38°C° 0 mm 2 m/s 751 mmHg 15%
09:00 +41°C° 0 mm 2 m/s 751 mmHg 14%
10:00 +42°C° 0 mm 2 m/s 751 mmHg 13%
11:00 +43°C° 0 mm 2 m/s 751 mmHg 12%
12:00 +45°C° 0 mm 2 m/s 750 mmHg 11%
13:00 +44°C° 0 mm 3 m/s 750 mmHg 12%
14:00 +44°C° 0 mm 4 m/s 750 mmHg 13%
15:00 +43°C° 0 mm 5 m/s 750 mmHg 13%
16:00 +41°C° 0 mm 5 m/s 750 mmHg 17%
17:00 +40°C° 0 mm 4 m/s 750 mmHg 20%
18:00 +37°C° 0 mm 3 m/s 750 mmHg 24%
19:00 +36°C° 0 mm 3 m/s 750 mmHg 25%
20:00 +35°C° 0 mm 2 m/s 751 mmHg 26%
21:00 +33°C° 0 mm 1 m/s 751 mmHg 27%
22:00 +33°C° 0 mm 1 m/s 751 mmHg 25%
23:00 +33°C° 0 mm 1 m/s 750 mmHg 24%

17 Mai, Lundi

Heure Température Précipitation Vent Pression Humidité
00:00 +32°C° 0 mm 1 m/s 750 mmHg 22%
01:00 +32°C° 0 mm 1 m/s 750 mmHg 21%
02:00 +32°C° 0 mm 1 m/s 750 mmHg 20%
03:00 +32°C° 0 mm 1 m/s 750 mmHg 19%
04:00 +32°C° 0 mm 1 m/s 751 mmHg 22%
05:00 +32°C° 0 mm 2 m/s 751 mmHg 25%
06:00 +32°C° 0 mm 2 m/s 752 mmHg 29%
07:00 +36°C° 0 mm 2 m/s 752 mmHg 24%
08:00 +38°C° 0 mm 2 m/s 752 mmHg 19%
09:00 +41°C° 0 mm 1 m/s 752 mmHg 14%
10:00 +42°C° 0 mm 2 m/s 752 mmHg 13%
11:00 +43°C° 0 mm 2 m/s 752 mmHg 11%
12:00 +45°C° 0 mm 2 m/s 751 mmHg 10%
13:00 +45°C° 0 mm 3 m/s 751 mmHg 10%
14:00 +45°C° 0 mm 4 m/s 751 mmHg 10%
15:00 +45°C° 0 mm 4 m/s 750 mmHg 10%
16:00 +43°C° 0 mm 4 m/s 750 mmHg 14%
17:00 +40°C° 0 mm 4 m/s 750 mmHg 19%
18:00 +37°C° 0 mm 4 m/s 750 mmHg 23%
19:00 +36°C° 0 mm 3 m/s 751 mmHg 25%
20:00 +35°C° 0 mm 3 m/s 751 mmHg 28%
21:00 +34°C° 0 mm 2 m/s 751 mmHg 30%
22:00 +34°C° 0 mm 2 m/s 751 mmHg 30%
23:00 +32°C° 0 mm 1 m/s 751 mmHg 31%

18 Mai, Mardi

Heure Température Précipitation Vent Pression Humidité
00:00 +31°C° 0 mm 1 m/s 751 mmHg 32%
01:00 +31°C° 0 mm 1 m/s 750 mmHg 30%
02:00 +31°C° 0 mm 1 m/s 750 mmHg 28%
03:00 +31°C° 0 mm 2 m/s 750 mmHg 27%
04:00 +32°C° 0 mm 2 m/s 750 mmHg 27%
05:00 +32°C° 0 mm 1 m/s 751 mmHg 27%
06:00 +32°C° 0 mm 1 m/s 751 mmHg 27%
07:00 +35°C° 0 mm 1 m/s 751 mmHg 23%
08:00 +37°C° 0 mm 1 m/s 751 mmHg 18%
09:00 +41°C° 0 mm 1 m/s 751 mmHg 13%
10:00 +41°C° 0 mm 1 m/s 751 mmHg 13%
11:00 +42°C° 0 mm 2 m/s 751 mmHg 12%
12:00 +44°C° 0 mm 3 m/s 751 mmHg 12%
13:00 +43°C° 0 mm 2 m/s 751 mmHg 11%
14:00 +43°C° 0 mm 2 m/s 750 mmHg 10%
15:00 +43°C° 0 mm 1 m/s 750 mmHg 10%
16:00 +42°C° 0 mm 1 m/s 750 mmHg 11%
17:00 +40°C° 0 mm 2 m/s 750 mmHg 13%
18:00 +39°C° 0 mm 2 m/s 750 mmHg 14%
19:00 +37°C° 0 mm 1 m/s 750 mmHg 15%
20:00 +35°C° 0 mm 1 m/s 750 mmHg 16%
21:00 +34°C° 0 mm 1 m/s 750 mmHg 16%
22:00 +34°C° 0 mm 1 m/s 750 mmHg 16%
23:00 +35°C° 0 mm 2 m/s 749 mmHg 16%
Voir plus

Nous avons besoin de votre consentement

Meteoprog et ses fournisseurs de services peuvent stocker et accéder à des données personnelles telles que des cookies, des identifiants d'appareils ou d'autres technologies similaires sur votre appareil et traiter ces données pour personnaliser le contenu et les publicités, ainsi que pour fournir des fonctionnalités de médias sociaux et analyser le trafic.

  • Stocker et/ou accéder à des informations sur votre appareil

    Des cookies, des identifiants d'appareils ou d'autres informations peuvent être stockés ou accessibles sur votre appareil aux fins indiquées ci-dessus.

  • Annonces et contenus personnalisés, mesure des annonces et des contenus, connaissance de l'audience et développement de produits

    Les annonces et le contenu peuvent être personnalisés en fonction d'un profil. D'autres données peuvent être ajoutées pour mieux personnaliser les annonces et le contenu. Les performances des publicités et du contenu peuvent être mesurées. Il est possible d'obtenir des informations sur le public qui a vu les publicités et le contenu. Ces données peuvent être utilisées pour développer ou améliorer l'expérience de l'utilisateur, les systèmes et les logiciels.

En cliquant sur "J'accepte", vous autorisez l'utilisation de cookies, des identifiants d'appareils, des balises web ou d'autres technologies similaires. Vos paramètres peuvent être modifiés dans le navigateur de votre appareil.

Dans certains cas, des intérêts légitimes peuvent être invoqués plutôt qu'un consentement. Vous pouvez en savoir plus à ce sujet dans notre Politique de confidentialité et de cookies.